Вернуться в каталог

STARLINK-34550

АктивенСвязьVLEO
NORAD 64683·PAYLOAD·🇺🇸 United States

Запущен Jun 28, 2025 с Cape Canaveral Space Force Station

Loading…

Ближайшие Пролёты (ближайшие 24 часа)

TLE

СвежийSource: CelesTrak SupGP

Эпоха: Sep 15, 2026, 03:44 UTC

1 64683C 25139V   26258.15604167  .00045624  00000+0  13479-2 0  2584
2 64683  53.1593 322.7245 0001292  92.1979 220.9968 15.34369556    15

Отслеживайте STARLINK-34550 в реальном времени с AllMySat

Download on the App Store